Location: Grange Rosano
(44.4500°N, 6.9667°E)
Time: 19:40:37
(UTC+00:00)

Cosmos 1455 Rocket - Pass Details

Date: 26 May 2022
Orbit: 604 x 629 km, 82.5° (Epoch: 01 July)

Event Time Altitude Azimuth Distance (km) Brightness Sun altitude
Rises 00:18:21 0° 359° (N) 2,931 7.8 -23.5°
Reaches altitude 10° 00:20:45 10° 7° (N) 2,017 6.8 -23.4°
Maximum altitude 00:24:54 37° 76° (ENE) 983 4.2 -23.2°
Enters shadow 00:26:16 30° 114° (ESE) 1,138 4.3 -23.2°
